Regional Weather Roundup
Issued by NWS Charleston, WV

Home | Current Version | Previous Version | Graphics & Text | Print | Product List | Glossary Off
Versions: 1 2 3 4 5 6 7 8 9 10 11 12 13 14 15 16 17 18 19 20 21 22 23 24 25 26 27

000
ASUS41 KRLX 301410
RWRRLX
West Virginia Regional Weather Roundup
National Weather Service Charleston WV
1000 AM EDT SAT APR 30 2016

Note: "fair" indicates few or no clouds below 12,000 feet with no
significant weather and/or obstructions to visibility.

WVZ003-301500-
Northern Panhandle of West Virginia

CITY           SKY/WX    TMP DP  RH WIND       PRES   REMARKS
WHEELING       CLOUDY    51  45  79 E7        30.11F
$$

WVZ009-301500-
Northwest West Virginia

CITY           SKY/WX    TMP DP  RH WIND       PRES   REMARKS
PARKERSBURG    CLOUDY    57  48  72 NE5       30.10F
$$

WVZ006-301500-
Western West Virginia

CITY           SKY/WX    TMP DP  RH WIND       PRES   REMARKS
HUNTINGTON     CLOUDY    56  50  80 NE7       30.03S
$$

WVZ015-301500-
West Central West Virginia

CITY           SKY/WX    TMP DP  RH WIND       PRES   REMARKS
CHARLESTON     PTSUNNY   58  51  78 E5        30.04R
$$

WVZ022-031-301500-
North Central West Virginia

CITY           SKY/WX    TMP DP  RH WIND       PRES   REMARKS
CLARKSBURG     PTSUNNY   60  50  69 CALM      30.07F
MORGANTOWN       N/A     61  46  57 NE6       30.09F
$$

WVZ025-035-042-045-301500-
Southern West Virginia

CITY           SKY/WX    TMP DP  RH WIND       PRES   REMARKS
BECKLEY        CLOUDY    58  50  75 VRB5      30.08R
LOGAN          NOT AVBL
BLUEFIELD      PTSUNNY   58  50  75 SE14G20   30.09R
LEWISBURG      LGT RAIN  56  53  89 SE5       30.10S
$$

WVZ047-301500-
Northern Mountains of West Virginia

CITY           SKY/WX    TMP DP  RH WIND       PRES   REMARKS
ELKINS         CLOUDY    57  47  69 SW5       30.09S
$$

WVZ052-301500-
Eastern Panhandle of West Virginia

CITY           SKY/WX    TMP DP  RH WIND       PRES   REMARKS
MARTINSBURG    CLOUDY    51  49  92 NE5       30.18S FOG
PETERSBURG     CLOUDY    55  52  88 CALM      30.15S FOG
$$




USA.gov is the U.S. government's official web portal to all federal, state and local government web resources and services.